DateTimeUTC,F1_A11,F1_S11,BsB_S11,BsG_S11,BsR_S11,BbsB_S11,BbsG_S11,BbsR_S11,BaB_A11,BaG_A11,BaR_A11,Tu_S11,T_S11,Uu_S11,U_S11,P_S11,T1_A11
2021-07-20T11:00:00Z,00000200,20000000,,,,,,,-000.11,-000.01,-000.08,19.2,25.5,13.8,09.4,0670.5,31.1
2021-07-20T11:01:00Z,00000200,20000000,,,,,,,0000.21,0000.33,-000.05,19.2,25.5,13.8,09.4,0670.5,31.1
2021-07-20T11:02:00Z,00000200,20000000,,,,,,,-000.14,-000.44,-000.25,19.2,25.5,13.8,09.4,0670.5,31.1
2021-07-20T11:03:00Z,00000200,60000000,,,,,,,0000.17,0000.02,0000.31,19.2,25.5,13.8,09.4,0670.5,31.1
2021-07-20T11:04:00Z,00000200,40000000,-000.83,0000.28,0000.07,0000.09,0000.17,-000.04,-000.12,0000.17,0000.07,19.3,25.4,13.6,09.4,0671.4,31.1
2021-07-20T11:05:00Z,00000200,00000000,0000.12,0000.20,0000.28,0000.02,0000.10,0000.39,0000.09,-000.13,-000.24,19.4,25.4,13.8,09.6,0671.5,31.1
2021-07-20T11:06:00Z,00000200,00000000,0000.26,0000.50,0000.35,-000.13,-000.04,0000.13,0000.39,0000.58,0000.53,19.4,25.4,13.8,09.5,0671.5,31.1
2021-07-20T11:07:00Z,00000200,00000000,0000.46,0000.12,0000.47,0000.60,0000.13,0000.40,-000.08,-000.46,-000.01,19.4,25.4,13.9,09.6,0671.5,31.1
2021-07-20T11:08:00Z,00000200,00000000,0000.16,0000.06,0000.23,0000.17,-000.20,0000.18,0000.53,0000.70,0000.17,19.4,25.4,13.9,09.7,0671.5,31.1
2021-07-20T11:09:00Z,00000200,00000000,0000.42,0000.48,0000.25,0000.58,0000.13,-000.02,-000.25,-000.12,0000.21,19.4,25.4,14.0,09.8,0671.5,31.1
2021-07-20T11:10:00Z,00000200,00000000,0000.15,-000.02,0000.36,0000.00,-000.09,0000.31,0000.04,0000.15,-000.02,19.5,25.4,14.1,09.8,0671.5,31.1
2021-07-20T11:11:00Z,00000200,00000000,-000.17,0000.25,0000.30,0000.11,0000.19,0000.23,-000.25,0000.00,-000.25,19.5,25.4,14.0,09.8,0671.4,31.1
2021-07-20T11:12:00Z,00000200,00000000,0000.45,-000.09,0000.18,-000.30,0000.07,-000.15,0000.11,-000.36,0000.01,19.5,25.4,14.1,09.8,0671.4,31.1
2021-07-20T11:13:00Z,00000200,00000000,0000.29,0000.58,0000.44,0000.30,0000.07,0000.03,-000.17,-000.05,-000.27,19.5,25.4,13.9,09.7,0671.4,31.1
2021-07-20T11:14:00Z,00000200,00000000,-000.34,0000.11,0000.04,-000.11,-000.01,-000.16,0000.64,0000.50,0000.45,19.5,25.5,13.9,09.7,0671.4,31.1
2021-07-20T11:15:00Z,00000200,00000000,-000.12,0000.48,-000.08,0000.48,0000.37,-000.25,-000.28,-000.36,-000.30,19.5,25.5,13.7,09.6,0671.4,31.1
2021-07-20T11:16:00Z,00000200,00000000,0000.69,0000.40,0000.32,-000.09,0000.40,-000.06,0000.33,0000.28,0000.76,19.6,25.5,13.7,09.6,0671.4,31.1
2021-07-20T11:17:00Z,00000200,00000000,-000.25,0000.18,0000.10,0000.37,0000.12,-000.02,0000.37,0000.35,-000.09,19.6,25.5,14.0,09.8,0671.4,31.1
2021-07-20T11:18:00Z,00000200,00000000,0000.15,0000.66,0000.36,0000.73,-000.14,-000.14,-000.38,0000.10,-000.26,19.6,25.5,13.8,09.7,0671.4,31.1
2021-07-20T11:19:00Z,00000200,00000000,0000.35,0000.45,0000.12,0000.09,0000.32,0000.22,0000.70,0000.19,0000.35,19.6,25.5,13.9,09.7,0671.4,31.1
2021-07-20T11:20:00Z,00000200,00000000,0000.74,0000.53,0000.19,-000.46,0000.05,0000.17,-000.59,-000.56,-000.14,19.6,25.5,14.0,09.8,0671.4,31.1
2021-07-20T11:21:00Z,00000200,00000000,-000.15,0000.33,0000.67,-000.16,-000.12,0000.11,-000.05,0000.22,-000.15,19.6,25.5,13.8,09.7,0671.4,31.1
2021-07-20T11:22:00Z,00000200,00000000,0000.78,0000.27,0000.18,0000.19,0000.11,-000.01,0000.49,0000.02,0000.20,19.6,25.5,13.6,09.5,0671.4,31.1
2021-07-20T11:23:00Z,00000200,00000000,-000.49,0000.43,0000.20,-000.11,-000.14,0000.11,-000.33,-000.19,-000.25,19.6,25.5,13.7,09.6,0671.4,31.1
2021-07-20T11:24:00Z,00000200,00000000,0000.29,0000.03,0000.31,0000.22,0000.03,0000.26,0000.19,0000.63,0000.40,19.7,25.5,13.8,09.7,0671.4,31.1
2021-07-20T11:25:00Z,00000200,00000000,0000.45,0000.29,0000.39,-000.02,0000.12,0000.03,-000.01,-000.16,-000.38,19.7,25.6,13.8,09.6,0671.4,31.1
2021-07-20T11:26:00Z,00000200,00000000,0000.19,0000.23,0000.61,0000.59,-000.10,0000.07,-000.31,-000.35,-000.09,19.7,25.5,13.6,09.5,0671.3,31.1
2021-07-20T11:27:00Z,00000200,00000000,-000.42,0000.46,0000.13,0000.69,0000.25,0000.15,0000.50,0000.33,0000.52,19.7,25.6,13.6,09.5,0671.3,31.1
2021-07-20T11:28:00Z,00000200,00000000,0000.28,0000.28,0000.43,0000.07,0000.26,0000.77,-000.13,-000.04,-000.20,19.7,25.6,13.8,09.6,0671.3,31.1
2021-07-20T11:29:00Z,00000200,00000000,0000.05,0000.60,0000.20,-000.20,-000.02,0000.14,0000.39,0000.26,0000.51,19.7,25.6,13.6,09.5,0671.4,31.1
2021-07-20T11:30:00Z,00000200,00000000,-000.39,0000.38,0000.42,-000.06,0000.09,0000.04,-000.37,-000.07,-000.40,19.7,25.6,13.7,09.6,0671.3,31.1
2021-07-20T11:31:00Z,00000200,00000000,0000.21,0000.65,0000.27,0000.72,0000.25,0000.44,0000.14,0000.23,0000.30,19.7,25.6,13.5,09.5,0671.3,31.1
2021-07-20T11:32:00Z,00000200,00000000,0001.15,0000.22,0000.28,0000.67,0000.17,0000.16,-000.23,-000.27,-000.40,19.8,25.6,13.7,09.6,0671.3,31.1
2021-07-20T11:33:00Z,00000200,00000000,0000.34,0001.04,0000.20,0000.34,0000.12,0000.51,0000.48,0000.46,0000.63,19.8,25.6,13.6,09.5,0671.4,31.1
2021-07-20T11:34:00Z,00000200,00000000,-000.01,0000.64,0000.18,0000.34,0000.13,0000.30,0000.11,-000.39,-000.31,19.8,25.7,13.7,09.6,0671.3,31.1
2021-07-20T11:35:00Z,00000200,00000000,0000.42,0000.19,0000.19,0000.22,0000.14,0000.37,0000.18,0000.33,0000.49,19.8,25.7,13.5,09.5,0671.3,31.1
2021-07-20T11:36:00Z,00000200,00000000,-000.13,-000.00,0000.43,0000.14,-000.01,-000.00,-000.21,0000.23,-000.40,19.8,25.7,13.7,09.6,0671.3,31.1
2021-07-20T11:37:00Z,00000200,00000000,0000.30,0000.32,0000.37,0000.20,0000.03,0000.34,0000.29,-000.10,0000.31,19.8,25.7,13.6,09.5,0671.3,31.1
2021-07-20T11:38:00Z,00000200,00000000,0000.34,0000.24,0000.03,0000.03,0000.21,0000.18,0000.31,0000.30,0000.23,19.9,25.7,13.7,09.7,0671.3,31.1
2021-07-20T11:39:00Z,00000200,00000000,-000.35,0000.53,0000.16,-000.04,0000.17,0000.26,-000.02,-000.07,-000.44,19.9,25.7,13.6,09.6,0671.1,31.1
2021-07-20T11:40:00Z,00000200,00000000,0000.19,0000.66,-000.04,-000.03,0000.26,-000.06,0000.01,0000.22,0000.30,19.9,25.7,13.5,09.5,0671.1,31.1
2021-07-20T11:41:00Z,00000200,00000000,-000.23,0000.20,0000.31,0000.06,0000.23,-000.00,0000.36,0000.12,0000.14,19.9,25.7,13.5,09.5,0671.2,31.1
2021-07-20T11:42:00Z,00000200,00000000,0000.00,0000.02,0000.15,0000.22,0000.16,-000.22,0000.17,0000.26,-000.02,19.9,25.7,13.9,09.7,0671.2,31.1
2021-07-20T11:43:00Z,00000200,00000000,0000.60,0000.37,0000.53,0000.07,0000.19,0000.18,-000.10,-000.13,-000.17,19.9,25.8,13.7,09.6,0671.1,31.1
2021-07-20T11:44:00Z,00000200,00000000,0000.33,0000.63,0000.28,-000.00,-000.02,0000.19,-000.14,0000.15,0000.24,19.9,25.8,13.3,09.4,0671.1,31.1
2021-07-20T11:45:00Z,00000200,00000000,0000.16,0000.72,0000.19,0000.02,0000.26,0000.22,0000.24,0000.08,0000.24,19.9,25.8,13.4,09.4,0671.1,31.2
2021-07-20T11:46:00Z,00000200,00000000,0000.98,0000.79,0000.13,0000.18,0000.23,0000.05,0000.08,-000.24,0000.06,19.9,25.8,13.5,09.5,0671.0,31.1
2021-07-20T11:47:00Z,00000200,00000000,0000.46,0000.27,0000.27,-000.02,0000.20,0000.38,0000.11,0000.40,0000.03,20.0,25.8,13.5,09.5,0671.1,31.1
2021-07-20T11:48:00Z,00000200,00000000,0001.01,0000.33,0000.52,-000.36,0000.17,0000.19,0000.15,0000.04,0000.21,20.0,25.8,13.4,09.4,0671.1,31.1
2021-07-20T11:49:00Z,00000200,00000000,0000.02,0000.51,0000.44,0000.00,0000.13,0000.24,-000.01,0000.05,0000.13,20.0,25.8,13.5,09.5,0671.1,31.1
2021-07-20T11:50:00Z,00000200,00000000,0000.35,0000.55,0000.55,0000.91,0000.20,0000.23,0000.35,0000.17,0000.02,20.0,25.8,13.5,09.5,0671.2,31.1
2021-07-20T11:51:00Z,00000200,00000000,0000.27,0000.40,0000.16,0000.20,0000.16,0000.13,0000.07,0000.13,-000.30,20.0,25.8,13.3,09.4,0671.1,31.1
2021-07-20T11:52:00Z,00000200,00000000,-000.03,0000.19,0000.42,0000.32,-000.15,0000.04,0000.01,-000.02,0000.36,20.0,25.8,13.3,09.4,0671.1,31.1
2021-07-20T11:53:00Z,00000200,00000000,0000.68,0000.62,0000.26,0000.06,-000.11,-000.08,-000.00,0000.11,-000.15,20.0,25.8,13.4,09.3,0671.2,31.1
2021-07-20T11:54:00Z,00000200,00000000,0000.23,0000.55,0000.45,-000.26,0000.05,0000.20,0000.19,0000.07,0000.16,20.0,25.8,13.5,09.4,0671.2,31.1
2021-07-20T11:55:00Z,00000200,00000000,-000.10,0000.78,0000.31,0000.22,0000.10,0000.01,0000.20,0000.07,0000.12,20.0,25.8,13.5,09.4,0671.2,31.1
2021-07-20T11:56:00Z,00000200,00000000,0000.82,0000.37,0000.77,0000.30,0000.04,0000.44,0000.26,0000.19,0000.03,20.0,25.8,13.3,09.3,0671.2,31.1
2021-07-20T11:57:00Z,00000200,40000000,,,,,,,0000.08,0000.19,0000.35,20.0,25.9,13.2,09.2,0671.2,31.1
2021-07-20T11:58:00Z,00000200,60000000,,,,,,,-000.09,0000.02,-000.08,19.8,25.9,13.7,09.4,0670.2,31.1
2021-07-20T11:59:00Z,00000200,20000000,,,,,,,-000.13,-000.29,0000.00,19.8,26.0,13.6,09.3,0670.1,31.1
